Weather WX

World > North America > United States > Mississippi

Craig Springs, Mississippi Regional Weather

Lat: 33.31N, Lon: 88.92W
Wx Zone: MSZ033
Warning FLW WEATHER ALERT - (More Info. Click Here) Warning
Feedback

Craig Springs, MS Regional Weather

Expires:201906170100;;186060
ASUS44 KJAN 170010
RWRMS 

MISSISSIPPI HOURLY WEATHER ROUNDUP
NATIONAL WEATHER SERVICE JACKSON MS
700 PM CDT SUN JUN 16 2019

NOTE: "FAIR: INDICATES FEW OR NO CLOUDS BELOW 12,000 FEET WITH NO
SIGNIFICANT WEATHER AND/OR OBSTRUCTIONS TO VISIBILITY.


MSZ003>006-009-014>017-022>024-029>033-037>039-170100-
NORTHEAST MISSISSIPPI
  
CITY           SKY/WX    TMP DP  RH WIND       PRES   REMARKS
ABERDEEN       FAIR      82  82 100 W3        29.91R HX  97           
COLUMBUS AFB   FAIR      87  72  61 S6        29.89R HX  93           
6HR MIN TEMP:  87; 6HR MAX TEMP:  92;                                

CORINTH        FAIR      79  72  78 SW5       29.90R                  
GOLDN TRIANGLE FAIR      86  71  60 S7        29.91R HX  91           
STARKVILLE     FAIR      82  72  69 CALM      29.92R                  
TUPELO         FAIR      78  70  76 SW3       29.90R                  
                                      6HR PCP:  0.04;                

$$


SKY/WX - Weather  TMP - Temperature  DP - Dew Point  RH - Relative Humidity
WIND - Wind Direction/Speed PRES - Barometric Pressure VSB - Visibility
WCI - Wind Chill Index E13G22 Wind - East Wind 13 mph/Gusts of 22 mph